Theta_e
327 327 325 325 322 322 322 319 319 321 321 326 331 330 336 350 349 343 346 351 351 352 356 356 355 355 352 349 349 347 346 345 343 343 344 344 344 344 344 345 345 345 345 344 344 345 346 347 346 346 346 346 345 344 346 350 353 353 352 353 354 354 353 351 351 352 351 351 352 352 351 351 351 351 351 350 350 350 349 349 349 348 348 349 349 349 349
324 327 324 326 323 320 322 323 322 322 323 330 336 337 346 354 350 347 351 353 352 352 353 354 353 351 350 349 347 346 346 345 344 344 344 344 344 344 344 344 344 345 344 343 343 344 345 346 348 349 349 348 346 344 344 347 351 350 348 350 352 354 354 353 353 355 354 354 355 354 353 354 353 353 351 350 350 349 349 350 349 349 348 349 350 349 350
326 330 326 323 321 320 320 324 327 322 324 337 345 343 345 351 352 351 352 353 353 352 350 351 350 348 349 348 347 347 346 344 344 344 343 343 344 343 343 344 344 344 343 342 342 343 345 346 348 349 349 348 347 347 348 350 352 350 349 348 348 349 351 348 349 354 355 355 355 355 355 355 355 354 353 353 353 352 352 351 350 349 350 351 351 350 350
322 328 323 320 323 322 319 324 329 325 323 331 341 344 346 352 352 351 352 354 354 351 349 349 348 348 349 348 347 348 346 344 344 343 342 343 343 343 344 344 344 344 343 342 342 343 345 347 348 348 349 348 348 349 350 351 351 350 349 348 347 349 349 345 346 352 354 354 354 354 353 353 352 352 353 353 353 354 354 353 352 352 353 354 354 353 353
321 327 322 320 324 321 321 329 331 330 332 333 338 342 345 348 350 352 354 354 352 350 349 349 348 348 348 348 347 347 345 345 344 342 342 343 343 343 343 343 344 345 343 342 342 344 345 346 347 347 347 347 346 346 346 347 348 348 347 346 346 347 347 345 346 348 351 352 352 352 352 351 350 351 351 352 352 352 353 353 353 354 354 355 355 355 355
321 329 331 329 324 319 327 341 336 331 336 338 338 341 343 345 348 353 355 352 350 349 348 348 348 347 347 346 345 345 345 345 344 342 342 343 343 343 343 343 343 342 342 342 342 343 343 344 344 344 343 343 342 343 342 342 344 344 344 344 345 345 345 345 344 344 347 350 350 349 350 350 350 351 351 352 351 351 352 352 352 353 354 354 354 355 355
320 332 338 329 322 325 337 342 334 333 336 338 343 346 346 349 350 351 352 350 348 348 347 346 347 346 346 346 345 344 345 344 344 343 341 342 343 342 343 343 340 339 341 341 341 341 341 341 341 340 339 339 339 340 340 340 340 341 341 342 343 343 344 344 345 344 346 348 347 347 348 348 348 350 350 350 350 350 350 350 351 352 353 353 354 354 354
320 325 326 323 326 337 345 338 331 335 339 340 345 347 346 349 350 350 351 349 347 347 346 345 345 344 344 345 344 344 345 344 345 344 342 342 341 338 339 340 338 338 339 339 339 340 338 337 338 337 335 336 337 337 338 338 338 339 340 340 341 342 342 342 343 343 344 344 343 344 345 346 346 347 347 347 347 347 348 347 348 349 350 351 352 353 353
325 324 324 330 332 332 339 341 334 334 338 340 346 346 344 346 347 348 350 348 346 346 345 343 343 342 343 344 343 342 343 344 343 340 338 338 336 334 335 337 337 337 337 336 337 338 336 334 334 333 333 333 334 335 336 336 336 337 338 338 339 340 341 341 342 342 342 342 343 343 344 345 344 345 345 344 343 343 344 344 344 344 344 345 346 348 349
333 333 328 329 325 324 339 352 341 334 337 338 341 345 346 346 345 345 347 348 345 344 344 342 341 342 344 345 344 342 342 342 341 336 333 332 332 333 334 335 335 336 336 335 334 335 335 334 333 332 331 331 332 334 335 335 336 336 336 337 337 338 340 340 341 341 342 343 343 344 344 344 343 342 341 341 340 341 341 341 340 340 341 341 342 343 342
329 333 327 323 321 326 345 356 343 333 334 336 342 348 347 347 345 343 345 346 345 343 342 341 341 343 345 345 343 342 342 339 337 335 333 330 330 331 330 330 333 335 335 334 333 333 333 333 332 329 329 329 331 332 334 335 336 336 336 336 336 337 338 339 339 340 340 341 342 343 344 343 342 341 340 339 338 339 338 338 338 337 337 338 337 337 336
328 332 326 323 325 333 349 359 348 334 333 337 342 342 344 346 344 342 344 344 343 342 342 341 341 344 348 347 343 340 339 335 333 333 332 329 328 329 329 329 332 333 334 334 333 333 332 332 332 330 329 329 329 330 331 333 335 337 336 336 336 337 337 337 337 338 338 339 340 341 342 341 340 340 340 338 338 337 336 335 334 334 334 334 333 332 332
329 327 320 321 329 338 344 346 342 334 331 332 333 336 344 347 342 341 342 342 341 342 341 341 342 345 347 346 342 338 337 336 332 329 328 328 327 327 328 330 332 332 333 333 333 332 332 332 332 332 331 330 330 329 330 331 333 334 335 336 336 336 337 337 336 337 337 336 338 338 339 339 339 338 338 337 336 335 333 332 332 330 329 329 328 326 326
328 328 323 321 328 337 338 337 340 338 331 330 337 344 345 343 341 341 341 340 341 341 340 342 345 345 343 341 340 338 336 336 332 326 325 326 326 326 328 330 331 332 332 332 332 331 331 330 330 331 331 330 330 329 329 329 330 331 333 334 334 332 332 333 333 334 335 335 336 336 336 336 335 335 334 333 332 331 329 328 326 323 322 321 320 319 319
329 329 323 318 324 337 338 335 339 344 342 343 346 345 341 339 342 342 340 341 341 340 342 344 344 342 339 338 339 336 333 332 329 324 323 323 323 326 329 329 331 332 332 333 332 331 329 326 326 328 330 330 329 328 327 327 328 329 330 330 330 329 328 327 326 327 330 333 334 334 334 334 334 333 332 331 330 328 326 324 323 321 321 320 320 320 319
331 328 325 328 337 347 345 342 344 346 347 347 343 340 340 341 341 341 342 343 341 340 343 343 340 340 339 339 338 334 330 330 326 323 322 321 321 325 328 329 331 332 332 333 333 332 331 329 328 329 330 329 330 329 328 324 323 324 325 323 324 327 328 327 324 321 321 327 331 333 334 333 333 332 332 330 329 328 326 325 325 325 326 325 324 324 323
339 339 341 346 352 351 347 350 353 347 341 340 339 338 340 340 339 341 343 342 340 340 340 340 339 339 339 338 336 332 329 329 326 323 323 323 322 324 326 327 330 331 331 332 332 332 332 332 331 332 331 331 331 331 330 326 323 323 323 320 319 320 321 321 320 316 314 317 323 328 331 332 332 331 329 328 327 326 325 325 326 327 327 326 326 324 323
339 341 340 342 345 344 340 342 345 343 339 340 339 338 340 340 339 340 340 340 340 339 338 339 339 339 338 337 333 329 328 329 325 322 323 324 323 324 324 325 327 328 329 331 331 331 332 332 332 332 332 332 332 331 330 328 326 325 324 321 318 316 316 318 318 317 315 313 314 318 323 326 328 328 327 326 324 322 321 320 322 324 324 323 322 321 322
334 336 337 339 338 338 340 340 340 339 339 339 338 339 340 340 339 338 338 339 339 337 338 339 339 338 337 335 331 329 330 330 326 322 323 324 324 324 324 324 325 326 327 328 328 329 330 331 332 332 332 332 332 330 329 327 327 327 325 322 320 318 319 321 322 322 320 316 313 313 314 316 318 319 319 319 318 316 315 314 315 316 316 316 316 318 321
337 340 341 342 338 334 337 338 338 340 341 340 339 339 339 338 338 339 338 337 337 338 338 338 337 337 337 335 331 331 332 329 324 322 323 324 324 324 325 324 324 325 325 325 326 327 327 328 330 331 331 331 330 329 327 325 325 327 327 325 323 322 321 322 324 324 323 321 319 316 315 315 315 314 314 314 313 313 313 314 314 314 313 313 313 315 319
339 339 338 340 338 335 333 335 339 344 343 341 340 339 338 339 340 339 338 336 336 336 337 337 337 337 337 334 330 331 332 328 324 323 324 326 326 326 325 324 323 323 324 324 325 325 326 326 327 328 329 329 328 327 325 324 324 325 326 326 326 325 324 324 324 324 324 324 323 321 319 318 317 316 315 314 314 315 314 314 315 315 314 314 313 314 317
338 342 343 340 337 336 335 336 340 341 338 338 340 339 339 340 340 340 339 337 335 335 335 335 336 338 337 331 327 328 329 326 325 327 328 329 329 328 326 325 324 324 325 325 325 326 326 326 327 328 328 328 326 325 324 324 324 323 324 325 326 326 326 325 325 326 326 325 325 324 323 321 319 318 317 316 316 316 316 316 316 316 314 313 312 313 315
341 348 351 346 341 341 341 340 339 337 336 338 340 339 340 340 340 339 339 339 338 337 335 333 334 335 332 327 325 327 327 326 328 330 330 330 331 330 329 328 328 327 327 327 327 327 328 328 328 328 328 328 326 324 323 322 322 322 321 322 324 325 325 325 326 327 326 326 326 326 325 324 322 320 319 318 317 318 318 317 317 317 315 313 311 311 314
338 341 349 350 345 342 342 340 339 337 335 336 338 338 339 340 338 337 338 339 339 338 336 334 332 330 327 324 326 328 327 328 330 330 330 331 331 331 330 331 330 330 329 329 329 329 328 329 328 327 326 326 324 324 323 322 323 324 324 323 323 324 325 324 323 323 323 324 324 324 324 325 325 324 322 320 319 319 319 319 319 318 317 313 311 311 315
340 342 350 351 346 343 343 341 339 337 336 336 337 337 336 336 335 334 336 338 335 335 337 335 331 328 326 325 327 328 328 329 330 330 330 331 331 330 331 331 330 330 330 329 329 329 328 329 328 327 325 323 322 323 325 324 324 325 325 325 324 324 325 325 323 319 318 319 321 322 322 321 321 322 324 324 323 321 320 320 320 320 318 315 312 313 317
350 349 345 341 340 342 341 338 337 339 338 336 335 335 334 334 335 333 333 335 334 332 334 332 329 327 326 327 328 329 329 329 330 330 331 331 331 331 331 331 331 331 330 330 330 329 328 327 327 327 325 322 322 324 326 327 325 322 322 325 326 325 325 325 323 320 317 316 319 322 323 322 320 321 323 325 326 325 323 322 321 321 319 317 315 315 318
346 341 338 339 340 339 339 339 340 342 339 334 334 336 334 334 334 333 332 333 333 333 332 331 328 326 327 328 329 329 329 330 331 330 330 331 331 331 330 330 330 330 330 329 329 328 326 325 325 326 325 322 322 322 323 325 324 320 319 322 325 327 328 326 323 321 317 314 317 321 323 323 322 322 322 323 324 325 325 325 324 322 320 319 318 318 319
340 337 338 341 339 337 340 339 337 337 335 332 333 335 334 333 333 334 334 335 333 332 331 330 327 327 328 329 329 329 331 331 330 330 330 331 331 330 330 330 330 329 328 327 325 324 324 323 323 324 323 321 320 321 321 321 321 319 319 319 321 326 328 325 321 320 317 315 318 321 322 322 322 322 322 322 322 323 324 326 326 323 321 320 319 319 320
340 341 345 343 339 340 342 338 334 337 337 332 331 332 332 333 335 335 336 335 332 332 332 329 327 328 329 329 329 330 330 330 329 329 330 330 330 330 330 329 329 329 327 324 322 322 322 321 321 322 321 320 320 320 320 320 319 318 319 319 321 325 326 322 319 319 317 317 319 321 321 320 320 321 321 321 320 321 322 324 327 326 323 321 320 320 320
343 349 354 348 341 341 342 340 341 343 338 333 333 332 332 334 336 335 335 334 332 332 332 329 328 329 329 329 330 330 329 330 330 329 330 330 330 330 330 329 328 326 324 324 324 323 321 321 321 321 319 320 320 320 319 319 319 318 318 320 322 323 322 320 319 318 317 318 319 320 320 319 319 320 320 320 320 320 321 322 325 327 326 324 321 320 320
344 349 351 347 341 338 338 341 343 341 335 333 334 333 331 333 335 335 335 335 333 332 331 329 328 329 329 329 330 330 330 330 330 329 329 330 330 330 330 329 328 325 324 324 325 324 322 322 321 320 320 320 320 319 317 315 314 315 318 320 321 322 321 321 320 318 317 318 319 318 318 319 319 320 321 321 320 320 321 320 321 324 326 325 323 322 322
344 346 345 342 339 336 337 341 342 339 336 334 333 333 333 332 333 335 335 335 333 331 330 329 329 329 328 329 330 329 329 329 330 330 329 329 330 330 330 330 329 326 324 324 324 324 323 322 321 320 320 320 319 318 316 312 310 313 318 320 320 321 321 320 320 319 319 319 319 319 319 320 320 320 321 321 321 320 320 320 321 322 323 324 324 324 324
343 345 342 340 339 338 339 342 340 338 338 336 333 333 332 329 330 332 332 331 331 330 329 330 330 329 329 329 328 327 328 329 329 330 329 329 330 330 329 329 328 325 323 323 324 323 323 322 321 320 320 320 318 316 314 311 310 312 317 319 319 319 320 319 319 319 318 318 318 319 319 318 319 318 318 318 319 319 320 320 321 321 322 323 324 325 323
339 341 339 339 339 337 337 339 338 338 339 336 332 331 330 327 327 329 329 329 330 330 329 330 330 329 329 329 328 327 329 329 328 329 329 329 329 329 329 328 327 324 323 324 324 323 323 323 321 320 320 319 317 315 313 313 312 313 315 317 318 318 319 319 318 318 318 317 317 317 317 317 317 317 316 316 317 318 318 319 320 320 321 322 323 323 321
335 338 337 334 333 333 335 337 337 337 339 338 334 332 329 326 326 328 329 329 330 330 330 331 331 330 330 329 328 328 329 329 328 329 329 329 329 329 327 327 326 325 325 325 324 323 323 322 322 321 320 318 316 315 315 316 315 314 314 315 314 313 315 317 317 317 317 317 316 316 316 317 317 316 317 317 317 317 318 319 319 319 320 321 321 321 320
334 343 348 339 330 328 330 331 330 332 337 340 336 331 328 327 327 329 330 330 330 330 330 331 331 330 330 329 328 329 329 329 329 329 329 329 328 327 326 326 326 325 325 324 324 323 323 322 321 321 319 316 316 316 316 317 316 313 312 312 312 312 313 316 317 316 315 315 315 315 315 315 315 316 317 317 317 318 318 318 318 318 319 320 320 320 320
333 341 351 346 333 326 326 326 326 328 331 333 330 327 327 328 328 328 329 329 330 331 331 331 331 330 330 330 329 329 329 329 329 329 329 328 327 326 326 325 325 325 324 324 323 323 322 322 321 319 318 317 317 317 317 317 315 312 310 311 314 315 316 316 316 315 315 314 314 314 314 315 315 316 317 316 317 317 318 318 318 318 318 319 320 320 319
334 334 339 339 333 327 326 327 327 327 329 330 328 327 328 328 327 328 329 330 330 331 331 331 331 330 330 330 330 329 329 329 329 329 328 326 325 325 324 324 325 324 324 324 324 323 322 321 320 319 318 318 317 317 318 318 315 311 311 313 316 316 315 315 315 315 315 314 314 315 315 315 315 316 316 317 317 317 317 318 318 318 318 319 320 320 319
340 338 334 333 332 330 328 328 328 327 329 329 328 327 328 328 327 327 328 329 330 331 331 330 330 330 329 329 329 329 329 330 329 328 327 326 325 325 324 324 324 324 324 324 324 323 322 321 320 319 318 318 317 316 317 318 316 312 312 315 316 315 314 315 314 314 314 314 314 315 315 315 315 316 316 316 317 317 318 318 318 318 318 318 319 319 319
346 344 336 332 332 331 328 328 329 328 327 328 327 327 327 327 326 326 327 328 330 331 330 330 330 329 329 329 329 329 329 330 329 328 326 325 325 325 324 324 324 324 324 324 324 324 322 321 320 318 317 317 316 315 315 316 315 313 313 314 314 313 313 313 313 314 314 314 314 314 315 314 315 315 315 316 316 316 317 317 318 317 317 317 317 317 316
340 336 332 330 330 330 329 328 329 328 327 327 327 327 326 326 325 325 326 327 329 330 330 330 330 329 329 329 329 329 329 330 329 328 326 325 324 324 324 324 325 324 324 324 324 323 322 321 319 317 315 315 315 315 315 314 312 311 313 314 313 312 313 313 312 313 314 313 313 314 314 314 314 314 314 314 315 315 315 316 316 316 316 316 315 315 315
335 332 332 332 330 329 329 329 328 328 327 327 327 327 327 326 325 325 326 327 328 329 329 330 330 330 329 329 329 329 328 329 328 327 326 324 324 324 324 325 325 325 324 324 324 323 322 320 317 315 314 314 315 316 315 314 311 311 313 314 313 312 312 313 312 313 313 312 312 313 313 313 313 313 313 313 313 313 314 314 314 315 315 314 314 314 314
333 332 334 333 330 329 330 330 328 327 328 328 327 327 327 326 326 326 326 327 328 328 328 329 329 329 329 328 328 327 327 328 327 326 326 325 325 325 324 325 325 325 324 323 323 322 320 317 314 313 313 315 315 315 315 314 312 311 313 314 313 312 312 312 312 312 312 312 312 312 312 312 312 312 312 312 312 312 312 312 313 313 313 313 312 312 312
330 330 331 331 330 330 331 330 328 328 328 328 327 327 327 327 326 327 327 327 328 328 327 328 328 327 327 327 326 326 326 327 326 326 325 324 324 324 324 325 324 323 323 323 321 319 316 314 312 313 314 314 314 315 315 312 310 311 313 314 313 312 312 312 311 312 311 311 311 311 311 311 311 311 311 311 311 311 311 311 311 311 311 311 311 311 311
329 330 330 331 331 330 330 330 330 329 329 329 328 329 328 328 328 328 328 328 327 327 327 327 326 325 326 326 326 325 326 326 326 325 324 323 323 323 324 324 324 322 321 320 319 316 314 313 312 313 314 314 314 314 313 311 309 311 313 312 311 311 312 311 311 311 311 310 310 310 310 310 310 310 310 310 310 310 310 310 309 309 309 308 309 309 309
331 331 330 331 331 329 329 331 331 330 330 330 330 329 329 329 329 329 328 328 327 326 327 327 326 325 325 326 325 325 326 325 325 325 325 324 324 324 323 323 323 322 320 318 317 315 314 313 313 313 314 314 312 311 310 309 309 311 312 311 311 311 311 310 310 310 310 310 309 309 309 309 309 308 309 309 309 309 309 308 308 308 307 306 307 307 307
332 332 331 332 332 330 329 329 329 328 329 331 332 330 328 329 330 329 328 328 327 326 326 326 326 325 324 325 325 325 325 324 323 323 323 323 323 323 322 322 322 321 318 318 316 314 313 313 315 315 315 314 312 311 309 308 309 311 311 310 310 311 310 310 310 310 309 309 308 308 308 308 308 308 308 308 308 308 308 307 307 307 306 305 306 307 307
331 332 333 333 333 331 329 328 327 326 327 330 331 329 327 327 329 329 328 327 327 326 325 326 325 325 325 325 325 325 325 324 322 322 322 322 322 322 321 321 321 319 318 316 314 313 313 314 316 316 314 313 312 312 310 309 310 311 310 310 310 310 310 310 310 309 309 309 308 308 308 308 308 308 308 308 307 307 307 306 306 306 305 305 306 307 307
331 332 333 333 332 331 329 327 326 326 326 327 328 328 328 328 328 327 326 326 325 325 325 325 325 324 325 325 324 324 324 324 323 323 322 322 321 321 321 320 319 318 317 315 313 313 314 314 315 314 313 312 311 310 310 309 310 310 310 310 310 310 310 309 309 309 308 308 308 307 307 308 308 308 307 307 307 307 306 306 306 306 305 305 306 307 307
331 332 332 331 329 328 328 327 326 326 327 326 326 327 328 328 326 325 325 325 325 325 325 325 325 325 325 325 324 324 324 323 323 323 322 321 321 321 321 319 318 317 316 313 312 313 314 314 313 312 311 309 308 308 309 309 310 310 310 310 310 310 309 309 309 308 308 308 307 307 306 306 306 307 306 306 306 306 306 305 305 305 305 305 306 307 306
330 331 330 329 327 327 327 328 328 327 326 325 325 326 328 328 327 326 325 325 324 324 325 325 325 325 325 324 323 323 323 323 322 322 321 321 320 320 320 318 317 316 313 311 311 312 312 312 310 309 307 305 306 307 309 309 310 310 310 310 310 309 309 309 309 308 308 307 306 306 306 305 305 305 305 305 305 305 305 305 305 305 305 305 305 305 305
329 330 329 328 327 327 327 327 327 327 327 326 325 326 327 328 327 326 326 326 325 325 325 325 324 325 325 323 322 322 322 322 321 320 320 319 319 319 318 317 315 313 310 309 309 309 309 308 308 306 304 303 305 308 309 309 310 310 309 309 309 309 309 309 309 308 307 307 306 306 306 306 305 305 305 305 305 305 305 305 304 304 304 304 303 303 303
Wind_Speed
5 5 5 6 4 4 4 3 1 3 5 6 6 5 7 7 5 4 7 9 9 7 6 6 6 5 6 5 4 4 4 4 3 1 3 4 4 4 4 4 4 4 4 4 6 8 5 3 4 5 5 5 7 8 8 7 7 6 9 11 12 13 12 11 8 4 4 6 7 9 9 10 11 13 16 17 16 15 14 15 17 18 17 15 15 16 18
3 3 5 4 5 7 7 5 3 3 6 8 8 5 5 8 7 8 10 8 5 5 7 7 5 5 6 5 3 2 2 4 3 2 3 4 4 4 4 4 4 3 3 4 6 7 8 7 5 4 3 5 7 7 6 5 4 4 5 7 9 11 12 11 8 6 5 3 4 5 5 5 5 6 9 11 12 13 14 14 16 17 17 15 13 13 15
4 5 4 5 7 8 8 6 2 4 7 10 10 8 9 10 7 7 11 9 3 2 4 6 5 5 5 5 3 1 1 2 4 3 3 3 3 4 4 4 4 4 3 5 7 7 8 8 8 8 7 6 5 3 3 4 4 3 3 5 7 8 9 9 10 10 9 5 3 4 4 3 3 3 4 5 7 8 10 10 11 13 13 12 11 11 12
4 4 5 7 7 8 7 4 2 6 7 7 8 6 7 9 10 10 9 7 4 4 5 6 5 5 6 6 5 3 3 1 4 4 2 3 3 3 3 3 4 4 3 5 6 7 7 8 9 9 10 11 10 7 6 5 3 3 3 5 7 8 7 7 8 8 8 6 4 3 1 1 3 3 3 3 4 5 6 6 8 8 8 8 8 8 9
4 5 4 5 6 7 5 4 3 8 9 8 7 5 5 10 13 10 6 5 6 7 7 7 6 6 6 5 5 4 3 3 4 3 2 2 2 3 4 4 3 3 4 6 8 8 9 10 12 13 14 15 14 13 12 10 8 6 5 5 6 6 5 6 7 6 5 5 6 5 3 2 2 2 2 2 3 4 4 5 7 7 8 7 7 7 8
3 6 3 5 6 3 3 6 3 9 13 12 10 7 7 9 7 6 5 6 9 9 9 9 8 7 6 5 4 4 4 4 4 3 2 0 2 4 4 4 4 4 6 9 10 12 13 13 16 18 18 18 17 16 16 15 14 12 11 10 8 6 6 7 9 8 7 8 8 6 4 4 4 3 1 1 2 2 3 4 4 5 7 7 7 9 10
1 3 5 6 3 5 5 5 4 7 13 15 13 8 6 8 8 9 10 10 12 11 8 8 8 6 5 4 3 4 5 4 5 5 3 2 0 3 4 4 5 6 7 10 11 13 14 15 18 20 19 18 19 18 17 17 17 16 15 13 11 9 9 9 9 9 9 9 6 4 4 5 6 5 4 1 1 1 2 3 3 3 4 5 6 8 7
1 2 4 2 4 6 4 5 7 10 12 15 13 8 2 5 9 12 11 9 10 10 8 7 7 6 5 5 3 2 4 5 5 5 4 3 1 2 3 4 7 7 7 10 12 12 13 16 18 19 18 17 18 19 18 17 17 17 16 16 14 12 12 12 12 12 11 10 8 6 6 7 8 8 7 5 4 4 4 4 4 3 3 3 5 6 5
2 3 1 1 2 3 4 1 4 4 5 9 10 6 2 3 5 10 10 9 9 10 9 8 8 7 6 4 1 1 3 5 4 5 5 4 3 3 4 6 8 8 7 10 13 13 14 17 18 17 18 18 19 20 19 18 18 18 18 17 15 14 14 14 15 15 15 15 14 12 12 13 14 13 11 10 9 8 7 7 7 6 6 5 4 4 3
2 5 2 2 3 1 4 6 4 1 7 10 10 9 2 6 3 8 11 11 11 10 10 9 8 7 5 2 3 4 3 4 4 4 5 6 6 5 5 6 8 8 9 10 13 14 14 15 14 15 17 18 19 18 17 18 19 19 19 18 16 16 15 16 17 18 18 19 18 16 16 16 17 16 15 14 13 12 13 13 13 12 11 11 11 9 8
2 5 3 1 1 2 7 6 5 1 9 11 10 7 1 5 4 8 11 12 11 11 11 11 9 7 4 4 5 5 5 5 5 5 5 6 7 6 6 7 8 9 9 8 10 13 15 12 11 13 16 17 17 16 14 15 17 18 18 17 17 17 16 17 18 19 20 20 20 19 18 18 19 18 16 15 15 15 16 17 17 17 16 16 16 14 12
3 4 3 3 2 3 6 5 3 4 6 9 10 3 4 5 6 8 11 13 11 11 12 10 8 7 5 5 6 6 7 7 7 7 6 6 8 6 5 6 7 8 7 7 9 14 15 11 8 10 11 13 15 15 14 15 17 17 17 17 16 17 17 18 19 19 20 21 21 20 20 19 19 17 15 15 15 15 16 17 18 19 19 19 19 18 16
3 4 3 2 2 3 5 3 2 4 2 7 6 4 6 7 9 8 10 13 11 11 11 9 7 6 5 5 6 7 8 7 7 8 10 9 9 6 5 6 8 8 8 9 11 14 16 13 10 9 9 9 11 13 14 16 17 18 18 18 17 17 17 17 18 18 19 20 21 21 20 19 18 16 15 15 15 15 17 17 18 19 20 20 20 20 18
2 3 3 1 3 4 4 2 2 2 4 2 4 5 4 9 11 8 9 11 10 11 10 8 5 4 4 6 9 8 9 8 6 8 10 10 8 9 10 11 12 12 12 13 13 15 15 14 11 10 10 10 12 15 15 15 17 19 21 20 20 19 19 18 18 18 18 19 20 21 20 20 20 18 17 17 17 17 18 19 20 21 21 21 21 20 19
1 2 3 2 2 4 4 2 2 3 3 5 5 3 4 8 10 8 8 9 9 9 8 6 5 5 7 9 9 8 9 8 8 10 11 11 10 13 15 15 15 16 14 13 14 15 15 14 11 10 9 10 13 17 17 16 16 17 19 19 19 19 20 20 21 21 20 19 19 20 20 21 21 20 19 18 19 19 20 20 21 21 20 20 20 20 19
2 2 1 3 5 5 3 3 2 2 4 6 6 7 6 5 7 7 6 6 7 9 9 8 7 8 9 9 8 9 9 8 7 9 10 11 12 15 17 17 18 18 16 14 14 14 14 15 15 13 9 10 13 15 16 16 17 18 18 18 18 17 17 18 20 22 22 21 19 19 19 19 20 21 20 20 20 19 19 20 20 19 18 18 18 18 18
3 4 5 5 4 4 2 3 4 4 5 6 7 8 7 5 5 6 6 6 6 8 10 10 9 9 9 8 8 8 8 7 7 8 9 11 14 17 18 18 18 18 18 17 15 12 11 13 14 12 9 9 12 13 13 14 16 17 18 20 21 21 20 20 21 22 22 22 20 19 17 17 18 19 19 19 20 18 18 18 17 16 16 15 16 16 16
1 2 2 2 3 2 2 4 5 6 7 5 6 8 7 6 6 6 6 7 8 9 11 10 8 8 8 8 8 8 7 7 8 10 11 12 16 18 18 17 17 17 16 16 14 12 12 13 13 13 12 12 13 14 13 12 13 15 16 19 22 23 23 24 24 23 23 22 21 20 19 17 17 17 17 17 18 18 17 18 17 16 15 15 15 15 15
1 1 2 3 5 5 6 6 5 6 6 5 6 8 7 7 7 7 7 8 9 9 10 10 9 9 9 9 8 8 8 7 8 11 12 13 16 18 18 17 18 17 15 14 13 12 12 12 13 14 14 14 14 14 14 14 15 15 15 17 19 21 22 22 21 21 22 21 20 21 21 20 19 18 17 17 18 19 18 18 18 17 16 15 15 15 15
2 4 5 2 3 4 5 7 6 5 6 7 7 8 8 7 8 7 8 9 10 8 9 10 11 10 8 9 9 8 7 7 9 12 13 14 16 17 18 19 19 18 17 16 15 15 14 13 12 12 12 13 13 13 14 16 17 19 18 17 16 16 17 17 18 18 18 18 18 18 19 19 20 20 19 18 18 18 17 16 16 15 15 15 14 14 14
0 3 1 4 3 2 4 4 5 6 7 8 8 8 9 9 8 8 8 9 10 10 10 10 11 10 8 8 9 9 7 7 10 13 14 15 17 18 19 19 18 18 17 17 17 16 15 13 13 13 13 13 13 14 15 16 17 19 21 20 18 15 13 12 13 14 14 14 15 15 15 16 16 17 17 17 17 16 15 14 14 14 14 13 13 13 13
0 3 3 4 5 3 5 5 6 8 9 10 10 9 9 10 10 10 9 8 9 11 13 12 11 9 8 9 11 9 8 9 12 15 16 17 18 19 18 17 16 16 16 16 16 16 14 13 13 14 14 14 14 15 16 16 15 17 18 19 20 18 15 12 11 10 10 10 10 10 10 11 12 12 13 14 14 13 13 13 13 13 12 12 11 12 12
5 7 7 5 6 5 5 6 7 8 9 11 12 11 10 11 10 10 11 10 8 9 12 15 14 9 8 13 14 9 8 13 17 18 19 20 19 19 20 19 17 16 15 14 15 14 13 12 13 13 13 13 13 13 14 14 15 16 15 16 17 17 17 17 15 13 12 10 8 7 6 6 6 7 8 9 10 11 11 11 11 11 11 10 10 10 11
3 5 6 7 6 5 6 7 7 8 9 11 12 11 11 10 10 11 12 11 11 10 9 12 15 15 14 17 17 12 11 16 20 20 21 22 21 20 20 19 18 17 16 14 14 13 12 12 12 12 12 12 11 12 13 14 15 15 14 13 13 14 15 15 14 14 13 12 11 9 7 5 3 3 3 4 5 6 7 8 9 10 10 9 9 10 12
3 4 6 6 6 6 6 5 6 7 8 10 10 10 11 12 12 13 11 9 12 15 11 8 13 20 20 18 18 17 16 18 21 22 21 20 20 19 19 19 18 17 16 14 13 12 12 12 12 11 11 10 10 11 12 12 12 12 11 10 10 11 11 11 11 11 11 11 10 9 8 6 4 3 2 1 1 3 3 5 7 8 9 9 9 11 13
4 5 5 5 6 6 5 5 5 5 6 9 10 9 12 16 17 16 15 14 15 18 17 13 15 21 23 20 20 20 19 19 21 22 20 18 17 17 17 18 18 16 15 14 13 13 12 11 12 12 11 10 9 9 8 9 9 10 11 9 8 9 9 8 8 9 9 8 7 8 8 7 5 5 4 4 3 2 3 4 4 6 9 10 11 12 14
4 7 8 7 5 4 5 6 7 6 7 10 9 7 12 20 20 17 16 17 18 19 20 20 20 20 21 22 22 21 21 20 19 20 19 18 18 18 17 18 17 15 14 13 13 14 14 12 12 12 11 10 9 8 8 8 8 9 10 9 6 7 7 6 5 7 8 6 5 5 7 7 6 6 6 7 6 5 4 6 6 6 8 10 11 13 14
7 8 8 7 7 8 7 6 7 6 7 10 11 11 14 17 16 13 11 12 13 14 17 22 24 21 18 20 21 20 19 19 18 18 18 19 20 20 19 19 17 15 14 15 15 16 16 14 13 13 12 10 10 9 10 10 9 8 7 7 5 6 6 4 3 6 7 5 3 4 6 7 6 7 7 8 8 7 5 3 5 7 9 10 10 11 12
8 7 6 7 9 8 5 4 6 7 7 10 12 14 14 13 12 10 9 10 11 11 12 18 23 22 20 21 21 19 17 16 17 19 20 21 22 22 21 20 19 16 16 17 18 16 14 14 14 14 13 11 10 9 8 8 8 7 7 8 6 6 7 4 4 5 6 3 1 3 6 7 7 8 8 8 9 10 10 6 1 6 9 10 9 9 10
6 6 6 6 7 8 8 7 7 7 8 9 10 11 12 13 11 9 10 11 11 10 12 16 19 20 20 21 22 21 20 19 20 21 21 21 23 24 23 22 19 16 15 17 17 15 14 14 14 14 13 11 9 7 6 5 5 5 6 7 7 6 5 3 3 4 5 3 2 2 4 6 8 9 7 6 9 12 13 11 5 2 7 9 9 8 7
5 5 7 7 8 9 10 8 7 8 8 9 10 10 10 12 12 10 10 10 9 10 14 16 17 18 20 22 23 24 24 22 22 22 21 21 24 26 25 23 21 18 16 16 17 17 16 15 15 14 11 9 7 6 5 4 2 1 2 4 6 5 3 2 3 2 4 5 3 3 3 5 7 7 8 9 10 12 12 12 9 5 4 7 8 7 6
7 6 7 7 7 9 9 7 6 8 7 8 10 11 10 10 11 10 9 9 10 13 15 15 16 19 22 23 24 24 24 23 22 21 20 22 26 27 26 24 22 21 19 18 19 20 19 18 17 14 11 9 7 5 3 2 1 2 3 3 4 4 3 3 3 1 3 5 4 3 1 3 5 7 8 9 9 9 10 10 10 8 5 6 7 6 5
9 6 6 7 6 7 8 7 7 8 8 8 9 9 9 9 10 10 11 13 14 14 14 15 18 23 24 24 24 24 23 21 19 19 21 23 26 27 26 24 22 21 20 19 19 19 19 18 17 15 12 9 6 3 2 1 0 3 4 3 3 3 3 3 2 1 1 4 5 3 1 5 5 4 4 4 4 5 6 8 8 8 7 6 7 7 6
11 10 10 11 11 10 10 9 7 7 7 7 7 7 8 10 11 12 15 16 15 14 16 19 22 25 25 24 23 24 22 18 14 16 21 24 25 26 26 24 22 22 21 19 19 19 18 18 17 15 12 9 5 4 3 2 1 1 4 5 6 5 4 4 3 3 3 5 6 4 0 3 2 3 4 4 3 3 3 4 5 6 6 7 8 9 6
9 8 9 10 11 11 11 10 9 8 8 7 7 7 8 10 12 15 18 20 19 20 22 23 25 26 25 24 23 22 21 19 17 19 23 25 25 25 24 22 21 21 20 19 19 19 17 17 16 14 11 8 6 5 4 2 1 3 5 6 6 7 6 5 4 3 3 3 3 4 4 4 4 6 6 5 5 4 4 5 6 6 6 6 7 7 5
7 7 6 7 8 9 9 9 10 9 7 7 7 7 8 11 14 16 18 21 24 26 26 25 25 25 24 23 23 22 22 22 23 24 25 25 24 23 22 22 21 21 20 19 19 19 18 17 16 13 10 8 7 6 4 2 3 4 5 4 3 3 5 5 3 2 1 3 5 6 7 7 8 10 10 10 9 9 9 9 10 9 8 6 5 6 5
8 8 6 6 8 10 10 11 13 13 10 9 10 11 12 14 17 19 19 20 23 27 28 27 26 24 24 25 26 25 24 24 25 25 25 25 25 24 23 22 23 22 20 19 19 19 19 17 15 12 10 8 7 6 5 3 3 3 3 4 3 2 3 2 2 2 2 4 6 7 8 10 12 13 13 13 13 12 12 11 11 10 9 7 6 6 5
8 9 8 8 10 11 12 13 16 17 15 12 12 15 17 20 22 24 23 21 21 25 28 29 28 26 25 25 25 24 24 25 26 26 25 25 26 26 24 24 24 23 21 20 20 20 18 17 15 13 11 9 7 6 6 5 2 1 3 6 3 0 1 2 3 3 7 9 10 10 12 13 14 15 14 14 13 13 13 12 11 11 10 8 7 6 4
6 7 9 9 10 10 10 11 15 18 18 15 13 15 19 23 25 26 25 23 22 24 26 27 26 25 24 23 21 22 24 26 27 26 26 26 27 27 25 24 25 24 20 20 21 20 19 18 16 13 11 9 8 8 8 6 3 1 3 3 1 2 3 5 7 10 13 14 13 13 14 14 14 15 15 15 15 14 14 13 12 12 11 9 7 5 2
5 6 7 8 8 8 9 10 12 17 20 20 19 18 21 23 25 24 23 22 23 25 27 27 25 22 22 22 22 22 25 27 28 28 27 26 26 25 22 21 23 22 20 19 21 21 20 19 16 12 10 10 10 10 10 8 4 2 3 2 3 7 10 12 13 14 15 15 16 15 15 15 15 15 15 15 16 15 15 14 13 12 12 10 8 5 2
6 7 8 8 8 9 10 12 13 16 19 21 22 25 27 27 26 23 21 22 24 25 28 29 27 24 24 26 26 26 27 28 28 29 28 26 23 20 18 18 21 22 21 21 22 22 20 18 14 11 11 11 11 11 9 7 5 4 4 2 4 8 11 12 13 14 15 15 15 16 16 16 16 15 15 15 15 14 14 13 13 12 11 9 7 6 4
7 8 8 7 8 9 12 13 13 14 16 19 22 26 29 30 29 27 25 25 26 26 27 31 31 30 29 29 28 27 28 28 28 29 30 29 27 23 19 19 21 21 20 21 22 22 19 17 14 12 12 13 13 11 9 7 6 5 5 2 2 7 11 12 12 13 14 14 14 15 16 16 15 15 14 14 14 13 12 12 12 11 10 9 7 6 5
8 8 7 6 7 10 12 14 13 13 15 18 21 25 28 29 29 28 27 26 26 26 27 29 30 31 30 29 27 25 25 27 28 28 28 28 30 29 27 24 23 21 21 22 23 21 18 16 14 13 14 14 13 12 10 8 7 8 6 3 2 6 11 12 12 13 13 13 13 14 14 14 14 14 13 13 12 11 10 10 10 10 9 8 8 7 6
10 10 9 9 10 11 12 13 13 12 13 16 20 23 25 25 25 27 27 27 27 28 29 28 28 29 29 29 27 25 24 26 28 27 23 20 19 22 25 25 24 23 23 23 22 19 17 15 14 13 13 13 11 11 9 8 8 9 7 3 2 6 11 12 12 13 12 12 12 13 13 13 13 12 11 10 10 9 8 8 7 7 6 5 6 6 6
12 13 13 13 13 12 13 14 14 13 15 18 20 21 23 24 26 28 29 29 29 29 30 30 30 30 30 30 30 29 30 31 32 30 25 18 14 16 21 24 24 24 24 22 20 18 15 14 14 14 13 12 10 9 8 8 8 8 6 4 5 9 13 13 12 13 13 12 12 11 10 10 11 10 9 9 8 7 7 6 5 4 3 3 3 4 4
12 14 15 15 14 15 17 19 18 17 16 16 14 16 20 24 26 27 29 32 33 34 34 35 35 34 33 32 30 29 29 30 31 33 33 28 24 24 25 25 25 25 24 21 19 17 15 14 15 15 14 13 11 8 7 8 9 7 6 7 10 13 14 13 12 12 12 11 9 9 8 8 8 8 8 7 7 7 6 6 5 4 3 3 2 3 4
8 11 12 14 15 17 18 19 17 15 13 11 9 12 18 23 25 27 29 30 29 31 34 36 37 37 37 35 33 30 29 25 22 23 27 28 26 25 26 25 25 24 23 21 18 16 15 16 17 17 16 15 13 9 7 9 10 9 9 11 13 13 13 12 11 11 11 9 7 7 8 8 7 7 7 7 6 6 5 4 3 3 3 4 3 3 4
2 6 10 13 14 14 15 15 14 11 11 11 12 15 18 21 22 22 21 17 13 13 16 20 23 27 31 34 35 36 36 30 21 17 19 23 23 23 25 26 25 24 23 21 18 16 16 17 19 18 17 16 14 11 10 11 11 11 11 12 12 11 10 9 9 9 9 8 6 6 8 9 9 9 9 8 7 6 5 3 3 3 4 5 5 5 4
3 2 8 12 13 13 14 14 11 9 13 17 19 19 21 20 16 14 15 14 12 13 16 19 20 22 26 30 33 36 38 35 30 25 23 24 23 23 24 25 25 24 23 20 18 17 17 18 18 17 15 14 13 13 14 15 14 11 10 9 10 10 9 7 6 7 7 6 4 5 7 8 9 9 9 8 8 7 5 4 4 4 5 6 6 6 6
2 3 7 9 9 8 9 9 8 8 12 14 12 12 15 17 16 16 18 22 23 23 24 26 26 27 26 28 31 34 34 32 31 29 27 24 22 23 25 26 25 24 22 20 19 18 18 17 16 15 13 12 11 13 16 17 15 11 9 8 10 11 11 8 7 7 8 6 5 5 6 7 8 9 8 8 9 9 7 5 5 6 7 7 7 7 7
4 5 7 9 10 10 10 10 10 10 11 12 11 9 9 10 12 14 17 19 21 22 23 23 23 26 28 28 29 31 31 28 26 27 26 24 22 23 24 25 24 22 20 19 18 18 17 15 13 12 11 11 11 13 14 14 12 8 6 7 10 13 13 12 11 11 9 8 7 7 6 5 6 7 7 7 9 11 10 8 7 8 9 9 8 7 7
6 9 11 13 14 14 14 15 15 15 17 20 22 21 17 13 14 16 16 15 17 20 22 21 21 25 30 30 29 29 28 27 26 26 26 24 23 23 24 24 23 21 20 17 16 15 13 11 10 9 9 11 13 14 13 11 9 6 4 7 12 15 14 13 13 13 11 9 8 8 8 7 6 7 6 6 8 10 12 10 9 10 11 10 8 7 6
Wind_Direction
220 215 240 270 286 270 264 282 309 75 75 93 108 126 160 150 120 168 184 154 152 178 181 182 195 168 139 148 161 160 146 129 121 81 55 52 42 32 35 42 39 37 35 21 27 37 53 118 177 214 209 195 193 181 170 165 164 182 195 185 171 166 180 210 228 210 199 207 204 208 214 213 213 218 223 228 231 235 243 246 242 239 240 243 246 245 246
274 270 276 315 349 324 297 266 210 118 90 104 110 113 126 114 115 146 150 140 143 169 175 179 179 148 137 141 142 147 140 124 114 72 43 43 41 33 27 23 15 22 39 29 26 30 29 38 54 73 127 185 215 217 208 202 182 171 176 169 164 159 158 161 155 141 150 179 191 197 204 209 209 212 222 232 239 242 245 246 244 243 243 247 252 255 256
311 304 333 3 1 336 309 281 235 98 95 99 98 103 105 91 95 125 124 119 127 195 169 146 136 133 127 125 136 168 219 134 104 71 35 35 44 34 15 3 356 355 24 36 29 25 24 36 58 74 96 130 161 175 178 189 194 185 153 130 139 154 154 148 144 147 154 158 169 185 187 200 217 216 217 227 236 239 241 243 244 244 243 243 243 246 253
301 309 9 7 355 356 348 324 60 88 101 115 114 126 135 126 127 125 118 127 165 193 151 124 130 140 129 136 153 174 233 183 104 93 53 30 36 25 359 349 354 353 10 33 26 21 29 47 63 77 87 99 109 112 110 123 149 180 174 131 119 127 136 143 141 134 135 143 149 154 166 237 266 270 255 236 229 227 231 235 231 228 229 229 225 228 239
277 296 8 23 12 15 354 282 156 106 102 113 116 107 126 137 138 140 155 177 170 160 146 137 147 151 144 158 169 175 204 180 121 122 117 39 6 357 350 352 9 13 17 25 27 31 47 63 71 78 84 86 87 89 90 95 106 116 121 121 124 130 137 159 162 140 121 137 141 125 93 50 11 325 290 258 228 215 218 225 221 217 220 222 218 220 226
270 293 350 46 31 11 263 265 216 129 119 118 119 116 130 143 145 140 142 150 150 152 155 155 159 163 162 169 178 173 166 148 130 134 145 209 336 355 1 5 13 23 34 34 34 40 51 66 75 78 81 82 83 85 87 88 91 93 96 100 108 119 129 155 176 177 160 149 143 129 107 87 75 72 59 256 226 210 208 211 209 206 212 223 229 231 232
189 311 26 51 8 251 252 321 12 106 113 111 103 93 118 137 130 120 125 142 154 155 156 155 151 152 150 140 147 161 154 146 139 135 148 189 350 4 7 18 11 14 39 45 41 45 52 64 76 79 80 83 86 87 86 86 86 87 90 93 96 101 106 115 133 147 150 145 137 131 123 106 96 95 95 95 143 157 159 161 163 176 190 209 225 232 242
126 33 60 106 238 258 301 23 70 92 95 100 94 68 50 140 132 131 137 149 150 140 138 141 135 134 126 100 86 143 153 153 146 141 159 180 147 18 16 35 24 22 48 63 60 60 64 72 79 81 82 86 88 88 88 86 85 85 86 83 82 84 85 88 96 107 115 112 100 97 107 106 102 102 103 101 107 120 128 133 141 155 166 185 207 219 238
122 114 141 237 275 313 327 346 152 138 127 131 121 107 268 248 152 138 135 136 138 134 134 136 127 117 103 81 13 259 154 146 146 145 147 138 110 69 50 44 33 37 70 86 86 86 83 79 80 83 84 86 85 85 86 84 83 83 80 75 72 73 75 79 86 94 100 101 98 98 101 102 101 102 105 106 107 112 111 106 104 105 108 114 135 167 177
96 102 82 360 33 337 262 253 271 271 137 135 118 114 185 276 219 147 138 140 144 140 137 137 129 117 111 135 234 238 184 147 129 126 121 109 99 87 70 52 45 60 83 88 89 95 92 84 81 84 87 88 86 84 85 85 84 83 80 75 72 71 74 80 84 88 94 97 98 97 95 98 102 101 99 99 99 99 97 93 91 92 96 100 103 107 106
112 105 114 157 148 237 237 243 299 5 130 118 89 87 205 259 215 154 141 145 151 149 148 149 141 134 152 200 225 218 187 161 140 138 131 109 104 97 76 58 59 77 89 83 80 85 85 82 84 89 90 92 92 90 89 91 91 89 87 84 80 77 79 85 89 91 94 97 99 99 96 99 105 103 96 94 94 92 90 89 91 92 93 94 93 90 89
148 117 130 196 199 233 229 222 245 214 149 99 75 71 247 224 185 165 153 153 160 158 154 154 156 163 182 201 205 189 171 163 156 158 158 138 127 117 79 62 74 85 88 82 80 82 81 79 80 88 92 94 95 94 93 93 92 92 94 94 92 89 88 89 90 91 94 96 98 99 98 100 103 103 101 100 98 93 90 90 91 90 88 87 86 83 80
141 119 132 231 258 249 237 236 224 200 127 70 87 205 230 181 164 174 162 157 163 162 159 164 178 196 203 178 164 160 155 157 164 169 167 157 144 131 102 91 97 96 90 91 94 93 94 94 90 90 95 97 99 100 97 93 92 94 98 100 99 96 93 91 90 89 91 94 96 97 100 101 101 101 103 104 103 98 94 91 88 86 84 82 81 78 73
152 125 131 201 271 247 221 246 328 88 102 123 207 221 190 150 157 174 165 161 167 166 166 171 180 198 183 145 140 149 154 158 168 171 169 165 155 136 116 107 107 104 98 102 105 101 100 100 95 91 90 89 93 97 98 100 100 98 98 100 101 100 97 94 94 93 93 96 97 99 103 104 102 100 99 99 100 99 96 92 87 83 80 78 76 73 68
131 80 93 143 231 241 217 206 354 40 128 192 205 152 119 141 155 161 161 163 167 162 160 162 152 144 141 136 136 145 152 159 169 170 166 162 153 140 128 121 120 119 113 113 115 112 111 111 109 106 99 90 88 90 93 104 109 104 100 98 97 97 95 91 90 90 91 95 99 102 104 105 104 102 99 97 96 94 93 90 85 80 75 72 71 68 64
124 99 174 197 209 240 232 148 169 214 186 178 158 132 131 146 149 152 157 161 164 155 147 147 144 139 140 140 137 140 149 158 165 166 165 159 147 141 137 134 132 131 128 123 118 118 124 126 123 122 118 103 91 85 88 100 106 105 100 95 92 90 88 84 82 83 86 91 96 101 104 104 104 104 102 100 95 91 90 87 82 77 71 67 64 59 56
171 170 207 216 210 238 244 133 155 170 149 146 143 134 139 151 152 155 155 153 157 149 141 143 146 144 146 146 140 141 149 156 153 151 155 154 149 147 145 141 139 136 132 126 117 110 114 123 127 132 133 111 89 81 87 101 106 103 99 95 93 91 86 81 78 79 81 85 89 95 98 100 101 103 103 101 98 94 92 89 86 82 77 71 68 61 55
205 144 193 195 158 176 171 132 140 143 134 137 140 131 138 158 159 156 155 154 155 149 142 142 147 151 150 145 144 147 147 145 145 142 139 139 142 145 145 142 140 137 131 129 126 113 104 105 111 119 119 104 86 79 87 102 107 105 101 97 94 92 89 85 81 78 77 78 81 86 90 92 95 97 98 97 95 93 93 92 91 90 88 83 79 73 66
119 117 254 195 161 171 163 142 144 147 136 143 152 147 152 162 157 155 157 151 149 150 147 144 149 155 151 142 144 150 145 142 143 140 135 133 135 139 141 142 142 141 136 134 132 124 113 107 108 110 107 99 91 87 90 99 104 105 104 102 99 97 94 91 87 82 80 80 81 84 87 88 89 90 90 91 91 90 90 90 89 89 88 86 83 80 76
160 226 247 211 170 206 186 156 157 157 146 154 162 154 149 147 145 148 151 147 147 151 150 148 151 155 150 146 149 149 143 147 150 146 143 140 134 133 135 138 139 137 132 126 123 119 116 113 114 112 105 98 94 91 93 100 104 102 102 106 110 108 101 96 93 90 88 87 86 87 88 89 89 89 89 89 89 89 87 86 84 82 81 80 78 78 78
314 266 236 99 97 261 248 186 161 156 154 154 150 141 137 134 132 138 146 150 153 152 151 151 153 154 150 148 150 148 145 151 154 152 151 146 139 136 135 135 136 132 127 123 120 118 118 116 114 110 104 98 92 92 100 107 106 101 98 100 104 110 111 104 97 94 91 88 88 89 90 91 92 93 93 91 89 89 88 85 83 80 77 77 75 74 75
236 235 200 144 136 191 243 217 163 155 152 141 135 137 140 139 142 145 145 146 148 150 154 156 154 152 153 154 152 151 153 155 152 150 148 144 141 140 138 136 137 134 130 127 123 121 121 120 114 106 101 98 94 95 100 104 104 101 99 96 95 98 101 101 99 97 91 85 82 83 86 89 92 96 99 100 97 95 93 89 86 82 79 76 76 76 77
211 218 208 181 152 172 222 212 169 158 149 139 141 151 152 151 154 151 145 143 144 148 159 162 157 150 151 155 153 149 153 154 149 146 146 144 143 144 143 141 140 139 137 135 131 130 129 125 116 106 100 98 97 98 100 100 98 95 92 92 93 93 93 95 97 98 94 88 83 79 77 81 84 89 99 106 105 103 101 97 92 87 82 79 79 82 84
216 216 190 172 154 161 190 190 176 166 151 143 150 159 158 157 158 155 152 153 151 151 162 166 160 155 154 156 155 151 151 152 148 146 148 147 147 148 150 148 148 148 149 147 143 141 140 134 124 113 104 98 96 98 101 99 93 84 76 78 89 95 95 93 92 91 91 89 85 81 78 78 73 68 86 111 119 115 109 105 101 95 89 88 90 92 95
184 193 183 170 154 150 155 158 163 162 148 142 150 159 159 159 159 158 157 155 152 154 157 159 159 158 158 157 155 152 151 153 152 151 150 149 150 152 153 153 155 155 156 157 154 151 149 144 137 126 110 97 94 97 97 92 84 72 63 70 91 101 99 92 86 83 83 82 77 70 67 70 71 60 39 22 192 170 144 123 113 104 96 96 99 102 105
153 144 136 120 124 135 132 120 137 162 153 141 143 153 160 162 163 162 159 157 157 157 155 154 159 161 160 158 155 153 154 156 156 154 153 152 155 156 155 157 160 160 161 162 161 158 151 142 139 137 121 101 95 99 99 94 85 72 66 73 94 107 103 95 87 75 65 65 69 62 51 50 54 53 41 16 340 270 229 209 167 128 111 108 111 112 112
134 132 118 100 109 158 174 160 162 180 166 144 138 145 154 157 158 156 153 155 159 158 155 154 155 156 158 158 155 155 157 156 156 156 158 160 165 166 165 163 162 162 163 159 156 156 150 136 132 139 135 118 105 104 105 102 92 78 68 67 85 110 111 106 91 64 43 39 58 58 39 30 30 31 30 20 5 340 292 258 224 174 137 124 122 120 119
160 155 139 137 162 191 202 186 164 158 151 144 141 138 139 142 144 142 142 150 156 152 151 153 154 152 154 157 155 155 156 156 156 160 164 168 173 175 173 169 165 164 161 153 148 149 148 140 132 132 132 127 117 111 108 102 91 80 65 55 71 124 139 131 86 51 33 28 51 41 19 15 17 13 11 15 20 26 17 315 244 197 162 146 139 133 128
171 165 152 162 171 168 159 150 140 137 142 144 139 136 136 136 139 143 148 152 153 148 146 153 156 157 157 158 157 157 157 158 161 164 168 171 174 174 172 169 168 165 160 155 152 149 148 149 141 129 126 133 132 125 121 108 93 84 68 55 71 132 152 137 80 47 29 26 54 8 359 8 14 6 1 11 35 54 61 53 281 208 184 169 161 153 141
181 158 143 153 155 142 140 149 149 148 153 150 142 142 143 140 141 152 157 154 156 156 151 152 156 157 158 160 162 163 164 166 168 170 171 172 171 171 169 167 165 164 162 164 165 160 153 153 147 136 135 144 149 148 145 123 99 90 75 69 92 128 139 113 82 54 23 9 13 360 359 11 15 13 18 40 60 68 73 73 71 175 194 185 179 174 162
168 142 138 145 150 152 158 162 156 156 162 157 149 150 149 144 146 155 160 158 160 162 155 151 153 159 163 165 167 168 169 171 172 175 178 176 171 170 170 170 171 174 172 171 173 172 165 158 153 149 150 156 159 156 143 113 99 132 114 104 122 134 117 91 107 76 4 350 346 332 334 357 15 34 60 74 72 71 78 84 84 94 169 187 185 183 178
132 122 137 153 161 163 168 167 156 158 167 165 158 158 158 154 152 154 160 164 165 163 157 153 157 164 168 169 168 168 168 170 173 177 180 176 173 172 174 177 182 182 177 171 171 173 170 162 157 158 163 167 166 160 130 72 70 196 177 146 145 148 127 114 123 106 350 353 349 326 324 61 68 75 80 76 66 64 76 91 100 109 138 177 189 184 174
131 131 154 171 172 173 181 186 176 170 174 175 170 168 167 162 155 155 162 165 162 160 159 160 164 167 168 168 168 167 165 165 167 170 171 172 173 175 178 182 184 183 179 174 173 174 173 167 162 164 169 171 168 167 154 82 117 208 210 207 192 180 169 154 158 203 321 360 357 345 133 127 112 93 76 72 69 64 71 89 106 118 134 159 181 183 178
159 168 180 182 177 178 186 193 191 183 179 180 180 174 168 164 160 156 157 158 161 165 167 165 165 167 167 166 166 165 161 158 161 165 167 169 173 177 181 184 184 182 181 180 177 177 178 175 169 167 170 173 176 179 173 135 76 244 244 246 242 236 228 208 204 239 293 334 348 351 148 158 133 76 61 64 66 52 52 81 106 125 143 161 175 179 177
167 165 173 181 183 182 182 183 184 183 177 178 182 177 166 162 162 160 160 162 167 171 170 165 163 164 165 165 165 165 164 165 168 170 170 171 175 180 182 182 180 178 178 179 181 182 182 179 177 176 178 182 187 185 179 176 282 285 271 261 254 246 233 217 220 261 308 348 35 79 103 107 91 79 74 70 64 60 75 96 103 114 138 164 178 176 158
158 147 154 180 191 187 181 180 183 180 170 164 164 157 149 150 154 159 164 167 169 170 168 163 159 159 162 164 167 170 172 172 171 171 172 174 177 179 179 178 174 169 167 171 179 182 181 181 182 185 187 186 184 185 194 222 280 288 271 253 237 211 198 202 233 285 359 87 94 96 94 89 86 85 85 85 83 82 87 93 94 99 113 137 165 167 151
169 160 156 175 188 189 189 189 183 173 160 151 151 151 149 149 151 155 160 164 167 167 164 161 159 160 164 168 171 173 174 173 172 172 173 173 172 171 170 169 167 163 163 168 176 180 182 183 186 191 193 190 186 190 203 224 292 305 242 200 173 153 175 224 309 318 142 123 107 102 102 99 96 93 92 93 92 87 84 83 85 92 104 122 151 165 163
172 168 164 171 182 189 195 193 182 170 157 148 152 158 158 157 157 158 159 163 168 168 166 164 164 164 164 164 167 169 171 172 173 172 170 170 169 167 165 164 165 167 172 178 181 183 184 185 187 191 193 191 187 186 190 206 265 299 179 179 183 292 310 327 360 92 124 121 113 111 109 104 99 96 95 96 96 93 89 84 81 84 93 113 147 167 172
163 168 169 171 178 183 184 183 180 175 167 157 155 162 163 162 162 163 162 165 171 174 170 165 162 160 158 159 163 167 170 172 174 173 171 170 171 171 172 174 178 183 188 190 189 189 188 187 188 191 191 188 189 188 188 200 231 215 166 179 257 29 84 101 105 112 116 115 112 110 106 104 102 99 97 97 96 96 96 93 88 85 87 96 121 152 187
166 172 173 173 176 176 168 166 178 187 182 170 162 163 166 165 164 165 164 167 174 179 175 167 161 159 160 162 165 169 172 174 176 177 175 172 172 174 178 184 190 194 199 200 195 192 191 191 191 190 187 189 194 193 194 204 223 208 167 136 91 102 112 112 110 111 112 111 110 108 107 108 106 103 100 100 98 97 97 97 96 95 93 92 96 98 87
181 181 178 175 176 178 177 176 182 191 190 181 172 170 170 168 166 168 170 173 177 181 178 171 168 168 169 170 171 174 176 177 179 180 178 174 170 170 178 189 195 199 203 202 197 193 192 193 193 191 191 194 196 192 191 201 212 198 180 146 111 119 122 117 111 112 113 111 110 110 112 113 110 105 103 101 98 96 94 93 95 98 98 96 95 91 84
185 182 178 175 176 182 189 190 187 186 191 190 184 178 175 173 173 175 177 178 179 180 180 177 176 176 176 174 174 175 177 179 181 182 182 182 181 180 183 190 194 195 197 196 193 190 190 191 192 194 196 196 195 191 190 201 215 203 190 185 144 136 135 129 122 119 118 115 112 111 113 113 110 105 103 101 99 97 94 90 90 92 88 84 87 92 94
190 182 178 184 188 188 193 195 191 187 193 196 192 187 185 182 179 178 177 177 177 180 182 180 178 176 175 173 172 173 176 180 181 181 182 187 191 192 194 193 190 187 189 189 187 187 189 191 193 195 195 195 196 197 199 212 226 218 205 207 193 157 149 142 135 129 126 123 119 116 115 114 111 109 107 104 102 100 96 90 88 85 77 70 70 75 84
195 185 182 190 193 190 191 193 189 185 192 200 199 195 192 188 184 181 179 177 178 181 182 178 175 173 172 171 170 171 173 177 178 176 174 176 184 193 197 196 189 183 184 186 185 185 189 193 193 190 188 187 190 197 205 217 223 213 203 204 202 175 162 150 140 135 133 130 126 124 122 119 117 116 115 113 111 108 102 96 89 80 67 58 55 57 65
196 194 194 194 187 178 180 188 191 191 193 197 198 195 192 190 189 187 183 180 180 181 181 178 175 173 172 172 174 175 177 179 179 177 172 169 174 186 192 193 189 185 184 186 185 185 189 193 191 186 185 186 190 199 210 213 207 199 187 160 151 162 162 153 144 142 140 136 133 133 133 130 126 124 123 124 125 123 118 114 107 92 71 55 51 56 63
198 201 201 197 189 183 185 191 195 192 185 180 184 192 194 192 191 189 186 184 183 183 181 180 178 177 176 174 172 171 172 176 180 182 183 185 188 188 187 188 189 187 184 184 186 188 192 194 192 189 190 191 191 193 198 195 191 189 177 157 150 152 152 149 145 144 144 140 136 136 140 140 138 134 133 135 137 135 132 128 121 110 97 83 72 80 85
200 203 202 199 199 198 194 189 185 179 171 166 177 192 193 191 190 190 189 188 186 185 184 182 180 178 177 175 171 167 164 164 170 181 187 189 189 185 182 182 185 185 184 187 192 195 194 193 193 194 195 193 189 189 190 185 178 167 156 154 155 153 151 150 149 148 147 146 141 142 151 158 161 159 158 160 159 156 153 149 143 134 127 124 127 128 116
225 218 211 204 200 197 187 176 168 168 175 183 190 192 190 190 188 183 177 175 179 182 177 172 169 171 174 176 176 176 175 171 167 174 185 187 184 179 177 179 182 185 187 189 191 191 191 191 193 194 194 193 192 194 198 192 181 167 159 163 169 170 166 165 164 163 162 162 157 157 167 177 180 178 174 174 174 177 178 177 177 171 154 143 148 159 159
19 235 211 202 193 183 174 169 168 182 195 197 196 191 186 181 172 156 151 160 175 176 164 158 164 175 180 180 178 178 179 180 180 180 181 183 182 178 176 178 182 187 188 188 186 186 188 190 190 192 197 201 203 206 205 201 194 187 183 187 190 189 184 180 178 180 183 182 170 159 167 178 186 188 187 186 189 193 193 187 183 180 169 160 165 173 177
134 173 185 183 173 164 165 170 178 191 195 193 192 187 177 167 158 157 167 175 178 175 168 167 174 181 184 183 179 177 177 181 182 178 174 175 178 178 178 180 184 187 189 189 187 185 186 188 192 198 207 214 214 209 206 203 200 200 203 206 204 201 201 201 197 193 194 194 188 176 170 173 181 187 192 198 204 206 201 191 182 178 171 172 182 190 191
153 143 144 148 149 152 161 168 171 168 158 150 152 168 174 155 141 149 164 170 170 167 164 167 173 179 181 181 179 176 175 177 177 172 169 170 175 178 180 183 185 187 188 189 188 186 186 190 197 206 213 212 201 193 192 193 192 192 202 211 209 207 209 209 204 198 196 199 201 198 190 182 186 195 202 211 214 210 204 197 192 185 179 181 192 200 197
125 133 143 152 159 162 165 167 167 162 153 149 157 171 178 162 136 135 148 163 172 172 169 166 168 174 177 176 174 172 172 173 171 168 166 168 173 177 180 182 183 183 184 184 185 185 187 191 199 210 212 200 187 179 178 181 182 181 197 209 205 201 200 200 198 195 193 194 196 197 197 202 211 218 223 225 217 207 202 199 196 193 188 187 191 195 196